CW2542 Weather Reports


Display with metric or nautical units.
time (UTC)temp
F
wind
direction
speed
MPH
gust
MPH
rain 1hr
in
rain 24hr
in
rain mn
in
humidity
%
barometer
mb
20220126121518 34 286 2.0 19.0 0.00 0.01 0.00 85 1021.6
20220126120016 34 23 0.0 6.0 0.00 0.01 0.00 86 1021.2
20220126114512 35 5 1.0 14.0 0.00 0.01 0.00 87 1021.1
20220126113025 35 50 0.0 9.0 0.00 0.01 0.00 88 1020.9
20220126111531 36 350 0.0 11.0 0.00 0.01 0.00 89 1020.5
20220126110001 37 19 0.0 8.0 0.00 0.01 0.00 90 1020.0
20220126104724 37 23 0.0 7.0 0.00 0.01 0.00 91 1019.7
20220126103401 37 350 0.0 4.0 0.00 0.01 0.00 91 1019.4
20220126101616 38 37 0.0 3.0 0.00 0.01 0.00 91 1019.1
20220126100147 38 44 0.0 2.0 0.00 0.01 0.00 91 1018.9
20220126094700 38 42 0.0 10.0 0.00 0.01 0.00 92 1018.9
20220126093110 38 57 0.0 2.0 0.00 0.01 0.00 92 1018.7
20220126091713 38 63 0.0 1.0 0.00 0.01 0.00 92 1018.5
20220126090111 39 12 0.0 0.0 0.00 0.01 0.00 92 1018.3
20220126083104 39 73 0.0 0.0 0.00 0.01 0.00 92 1017.7
20220126081621 39 50 0.0 0.0 0.00 0.01 0.00 92 1017.5
20220126080124 39 58 0.0 0.0 0.00 0.01 0.00 93 1017.5
20220126074621 39 34 0.0 0.0 0.00 0.01 0.00 93 1017.4
20220126073137 38 70 0.0 2.0 0.00 0.01 0.00 94 1017.1
20220126071604 36 183 0.0 0.0 0.00 0.01 0.00 93 1016.9
20220126070124 36 209 0.0 0.0 0.00 0.01 0.00 91 1016.8
20220126064535 37 209 0.0 0.0 0.00 0.01 0.00 91 1016.5
20220126063058 37 209 0.0 0.0 0.00 0.01 0.00 91 1016.4
20220126061634 38 209 0.0 0.0 0.00 0.01 0.00 91 1016.4
20220126060023 38 209 0.0 0.0 0.00 0.01 0.00 90 1016.5
20220126054545 39 209 0.0 0.0 0.00 0.01 0.00 90 1016.6
20220126053107 40 209 0.0 0.0 0.00 0.01 0.00 90 1016.4
20220126051605 41 209 0.0 0.0 0.00 0.01 0.00 90 1016.4
20220126050013 42 209 0.0 0.0 0.00 0.01 0.00 89 1016.3
20220126044553 43 209 0.0 0.0 0.00 0.01 0.01 89 1016.6
20220126043024 44 209 0.0 0.0 0.00 0.01 0.01 90 1016.7
20220126041509 44 209 0.0 0.0 0.00 0.01 0.01 90 1016.6
20220126040018 45 209 0.0 0.0 0.00 0.01 0.01 89 1016.6
20220126034512 45 209 0.0 0.0 0.00 0.01 0.01 89 1016.5
20220126033034 45 209 0.0 0.0 0.00 0.01 0.01 89 1016.5
20220126031538 46 209 0.0 0.0 0.00 0.01 0.01 89 1016.7
20220126030056 46 209 0.0 0.0 0.00 0.01 0.01 88 1016.8
20220126024508 47 209 0.0 0.0 0.00 0.01 0.01 87 1016.7
20220126023004 47 209 0.0 0.0 0.00 0.01 0.01 87 1016.5
20220126021505 48 209 0.0 0.0 0.00 0.01 0.01 87 1016.4
20220126020005 49 209 0.0 0.0 0.00 0.01 0.01 86 1016.5
20220126014504 49 209 0.0 0.0 0.00 0.01 0.01 86 1016.5
20220126013000 49 209 0.0 0.0 0.00 0.01 0.01 87 1016.3
20220126010325 48 209 0.0 0.0 0.00 0.01 0.01 88 1016.2
20220126004726 48 209 0.0 0.0 0.00 0.01 0.01 87 1016.0
20220126003147 48 209 0.0 0.0 0.00 0.01 0.01 86 1016.1
20220126000154 48 209 0.0 0.0 0.00 0.01 0.01 84 1015.8
20220125234622 48 209 0.0 0.0 0.00 0.01 0.01 84 1015.8
20220125233120 49 209 0.0 0.0 0.00 0.01 0.01 84 1015.5
20220125231722 49 209 0.0 0.0 0.00 0.01 0.01 83 1015.3
20220125230148 50 209 0.0 0.0 0.00 0.01 0.01 83 1015.3
20220125224639 50 209 0.0 0.0 0.00 0.01 0.01 83 1015.1
20220125223144 50 223 0.0 0.0 0.00 0.01 0.01 83 1015.1
20220125221554 51 223 0.0 0.0 0.00 0.01 0.01 82 1015.0
20220125220153 51 223 0.0 0.0 0.00 0.01 0.01 82 1014.7
20220125214620 51 223 0.0 0.0 0.00 0.01 0.01 81 1014.5
20220125213127 51 223 0.0 0.0 0.00 0.01 0.01 81 1014.6
20220125211719 51 224 0.0 0.0 0.00 0.01 0.01 80 1014.6
20220125210102 52 223 0.0 0.0 0.00 0.01 0.01 80 1014.7
20220125204611 52 225 0.0 0.0 0.00 0.01 0.01 79 1014.6
20220125203102 52 202 0.0 0.0 0.00 0.01 0.01 79 1014.3
20220125201700 51 202 0.0 0.0 0.00 0.01 0.01 80 1014.3
20220125200119 51 237 0.0 0.0 0.00 0.01 0.01 80 1014.2
20220125194658 52 208 0.0 0.0 0.00 0.01 0.01 79 1014.4
20220125193055 52 202 0.0 0.0 0.00 0.01 0.01 76 1014.1
20220125191550 53 238 0.0 0.0 0.00 0.01 0.01 73 1014.0
20220125190056 53 244 0.0 0.0 0.00 0.01 0.01 73 1013.6
20220125184709 53 243 0.0 0.0 0.00 0.01 0.01 73 1013.6
20220125183107 53 229 0.0 0.0 0.00 0.01 0.01 72 1013.6
20220125181614 53 238 0.0 0.0 0.00 0.01 0.01 76 1014.1
20220125180237 52 238 0.0 0.0 0.00 0.01 0.01 78 1014.2
20220125174647 52 228 0.0 0.0 0.00 0.01 0.01 82 1014.4
20220125173043 51 290 0.0 2.0 0.00 0.01 0.01 85 1014.7
20220125171534 50 204 0.0 2.0 0.00 0.01 0.01 86 1015.1
20220125170048 50 202 0.0 0.0 0.00 0.01 0.01 88 1015.4
20220125164537 49 229 0.0 0.0 0.00 0.01 0.01 91 1015.6
20220125163026 49 229 0.0 0.0 0.00 0.01 0.01 92 1015.7
20220125161520 49 229 0.0 0.0 0.00 0.01 0.01 93 1015.8
20220125160033 48 229 0.0 0.0 0.00 0.01 0.01 94 1015.6
20220125154526 48 229 0.0 0.0 0.00 0.01 0.01 95 1015.7
20220125153011 47 229 0.0 0.0 0.00 0.01 0.01 95 1015.8
20220125151503 46 198 0.0 0.0 0.00 0.01 0.01 95 1015.9
20220125150010 46 198 0.0 0.0 0.00 0.01 0.01 95 1015.8
20220125144606 46 198 0.0 0.0 0.00 0.01 0.01 96 1015.5
20220125143141 43 198 0.0 0.0 0.00 0.01 0.01 97 1015.4
20220125141606 41 198 0.0 0.0 0.00 0.01 0.01 96 1015.6
20220125140151 39 198 0.0 0.0 0.01 0.01 0.01 95 1015.7
20220125134548 37 198 0.0 0.0 0.01 0.02 0.01 95 1015.7
20220125133103 36 198 0.0 0.0 0.01 0.02 0.01 94 1015.6
20220125131618 35 198 0.0 0.0 0.01 0.02 0.01 94 1015.5
20220125130050 35 198 0.0 0.0 0.00 0.01 0.00 94 1015.4
20220125124602 34 198 0.0 0.0 0.00 0.01 0.00 93 1015.0
20220125123028 34 198 0.0 0.0 0.00 0.01 0.00 93 1014.8